�������l�o���
Date,Time,MP-1(��Sv/h),MP-2(��Sv/h),MP-3(��Sv/h),MP-4(��Sv/h),MP-5(��Sv/h),MP-6(��Sv/h),MP-7(��Sv/h),MP-8(��Sv/h),����,����(m/s),���J
2020/03/17,00:00,0.680,0.979,0.658,1.191,0.855,0.392,0.690,0.657,�k�k��,4.2,��
2020/03/17,00:10,0.680,0.980,0.656,1.193,0.857,0.394,0.691,0.658,�k�k��,5.0,��
2020/03/17,00:20,0.681,0.980,0.658,1.192,0.855,0.393,0.689,0.657,�k�k��,4.6,��
2020/03/17,00:30,0.680,0.979,0.657,1.191,0.857,0.393,0.690,0.656,�k��,4.2,��
2020/03/17,00:40,0.678,0.979,0.657,1.196,0.856,0.392,0.689,0.655,�k��,4.7,��
2020/03/17,00:50,0.678,0.980,0.656,1.196,0.856,0.394,0.689,0.656,���k��,4.7,��
2020/03/17,01:00,0.681,0.981,0.656,1.193,0.855,0.394,0.689,0.657,�k��,5.2,��
2020/03/17,01:10,0.681,0.978,0.656,1.194,0.855,0.394,0.690,0.657,�k��,2.8,��
2020/03/17,01:20,0.681,0.978,0.658,1.193,0.855,0.393,0.688,0.656,�k��,3.4,��
2020/03/17,01:30,0.681,0.978,0.658,1.194,0.854,0.392,0.691,0.656,�k��,3.8,��
2020/03/17,01:40,0.681,0.978,0.658,1.193,0.855,0.394,0.690,0.658,�k�k��,3.9,��
2020/03/17,01:50,0.680,0.979,0.658,1.194,0.856,0.392,0.690,0.657,�k�k��,2.6,��
2020/03/17,02:00,0.679,0.980,0.657,1.194,0.856,0.393,0.689,0.657,�k��,2.3,��
2020/03/17,02:10,0.678,0.977,0.657,1.192,0.855,0.392,0.689,0.656,���k��,2.3,��
2020/03/17,02:20,0.680,0.979,0.655,1.192,0.856,0.393,0.689,0.657,��,2.8,��
2020/03/17,02:30,0.681,0.980,0.657,1.194,0.853,0.394,0.689,0.656,���쐼,3.2,��
2020/03/17,02:40,0.680,0.979,0.656,1.194,0.854,0.392,0.690,0.657,�쐼,4.6,��
2020/03/17,02:50,0.679,0.978,0.656,1.194,0.854,0.393,0.690,0.655,�쐼,4.3,��
2020/03/17,03:00,0.679,0.979,0.655,1.194,0.856,0.393,0.689,0.655,��,4.3,��
2020/03/17,03:10,0.678,0.978,0.656,1.191,0.853,0.393,0.689,0.655,��,3.4,��
2020/03/17,03:20,0.679,0.977,0.655,1.190,0.853,0.392,0.689,0.657,���쐼,4.0,��
2020/03/17,03:30,0.679,0.979,0.656,1.194,0.853,0.392,0.688,0.657,���쐼,3.8,��
2020/03/17,03:40,0.680,0.979,0.656,1.193,0.854,0.394,0.690,0.657,��,3.7,��
2020/03/17,03:50,0.678,0.980,0.658,1.193,0.854,0.393,0.688,0.656,��,3.9,��
2020/03/17,04:00,0.679,0.978,0.656,1.192,0.855,0.393,0.689,0.657,���k��,3.2,��
2020/03/17,04:10,0.680,0.978,0.657,1.195,0.855,0.394,0.689,0.656,��,3.7,��
2020/03/17,04:20,0.679,0.979,0.656,1.193,0.853,0.394,0.689,0.657,��,3.4,��
2020/03/17,04:30,0.680,0.977,0.656,1.193,0.857,0.394,0.688,0.658,��,3.2,��
2020/03/17,04:40,0.679,0.977,0.658,1.193,0.855,0.394,0.687,0.656,���k��,2.0,��
2020/03/17,04:50,0.679,0.978,0.656,1.193,0.854,0.393,0.687,0.657,���쐼,1.5,��
2020/03/17,05:00,0.678,0.979,0.655,1.193,0.856,0.393,0.689,0.655,�쐼,2.2,��
2020/03/17,05:10,0.679,0.977,0.655,1.195,0.856,0.392,0.689,0.657,�쐼,3.4,��
2020/03/17,05:20,0.679,0.977,0.655,1.194,0.854,0.392,0.689,0.656,�쐼,4.0,��
2020/03/17,05:30,0.679,0.978,0.658,1.193,0.855,0.392,0.689,0.656,���쐼,5.3,��
2020/03/17,05:40,0.679,0.974,0.655,1.193,0.853,0.393,0.688,0.656,���쐼,6.2,��
2020/03/17,05:50,0.678,0.979,0.657,1.192,0.855,0.392,0.688,0.656,���쐼,6.0,��
2020/03/17,06:00,0.678,0.978,0.658,1.193,0.853,0.393,0.688,0.655,���쐼,5.0,��
2020/03/17,06:10,0.679,0.977,0.655,1.193,0.855,0.393,0.689,0.655,���쐼,4.9,��
2020/03/17,06:20,0.679,0.977,0.654,1.193,0.856,0.393,0.690,0.656,��,3.8,��
2020/03/17,06:30,0.681,0.979,0.655,1.191,0.855,0.393,0.687,0.656,��,3.1,��
2020/03/17,06:40,0.679,0.977,0.655,1.194,0.854,0.394,0.688,0.655,��,3.5,��
2020/03/17,06:50,0.680,0.976,0.654,1.193,0.854,0.392,0.688,0.655,��,3.1,��
2020/03/17,07:00,0.680,0.978,0.654,1.193,0.856,0.393,0.688,0.656,���쐼,2.8,��
2020/03/17,07:10,0.680,0.975,0.658,1.195,0.856,0.392,0.691,0.658,���쐼,2.5,��
2020/03/17,07:20,0.680,0.978,0.657,1.194,0.856,0.394,0.689,0.656,���쐼,3.0,��
2020/03/17,07:30,0.682,0.977,0.655,1.194,0.855,0.393,0.691,0.658,�쐼,3.0,��
2020/03/17,07:40,0.680,0.977,0.656,1.194,0.854,0.394,0.690,0.656,�쐼,3.1,��
2020/03/17,07:50,0.680,0.977,0.657,1.193,0.854,0.394,0.691,0.657,�쐼,2.2,��
2020/03/17,08:00,0.682,0.977,0.657,1.193,0.857,0.393,0.689,0.657,���쐼,1.5,��
2020/03/17,08:10,0.681,0.978,0.657,1.193,0.857,0.394,0.691,0.657,��,2.0,��
2020/03/17,08:20,0.682,0.978,0.656,1.192,0.856,0.394,0.692,0.657,���쐼,3.8,��
2020/03/17,08:30,0.683,0.978,0.657,1.195,0.858,0.394,0.692,0.657,��쐼,2.8,��
2020/03/17,08:40,0.683,0.976,0.655,1.194,0.857,0.394,0.691,0.659,��쐼,2.6,��
2020/03/17,08:50,0.682,0.977,0.656,1.193,0.855,0.396,0.692,0.658,��쓌,3.1,��
2020/03/17,09:00,0.684,0.976,0.657,1.193,0.858,0.394,0.691,0.657,��쓌,2.6,��
2020/03/17,09:10,0.684,0.975,0.657,1.194,0.857,0.395,0.689,0.657,��쓌,3.1,��
2020/03/17,09:20,0.684,0.975,0.657,1.194,0.857,0.395,0.688,0.659,�쐼,2.0,��
2020/03/17,09:30,0.684,0.976,0.656,1.193,0.856,0.396,0.687,0.660,���쐼,3.8,��
2020/03/17,09:40,0.685,0.971,0.658,1.194,0.856,0.394,0.688,0.658,���쐼,3.8,��
2020/03/17,09:50,0.684,0.972,0.657,1.196,0.859,0.395,0.688,0.656,���쐼,5.7,��
2020/03/17,10:00,0.684,0.974,0.659,1.194,0.858,0.395,0.688,0.657,��,7.5,��
2020/03/17,10:10,0.685,0.974,0.659,1.196,0.860,0.395,0.688,0.655,��,8.5,��
2020/03/17,10:20,0.684,0.974,0.659,1.193,0.859,0.395,0.688,0.656,���쐼,4.9,��
2020/03/17,10:30,0.686,0.973,0.660,1.195,0.860,0.395,0.689,0.655,�쐼,7.1,��
2020/03/17,10:40,0.684,0.974,0.658,1.197,0.860,0.397,0.689,0.655,��,9.9,��
2020/03/17,10:50,0.686,0.973,0.660,1.194,0.860,0.397,0.688,0.655,��,9.2,��
2020/03/17,11:00,0.685,0.974,0.660,1.195,0.859,0.396,0.690,0.656,���쐼,7.8,��
2020/03/17,11:10,0.686,0.977,0.659,1.195,0.859,0.396,0.689,0.656,���쐼,8.8,��
2020/03/17,11:20,0.688,0.974,0.660,1.196,0.857,0.396,0.691,0.657,���쐼,8.6,��
2020/03/17,11:30,0.686,0.979,0.659,1.196,0.858,0.397,0.690,0.656,���쐼,7.6,��
2020/03/17,11:40,0.685,0.980,0.660,1.197,0.859,0.396,0.690,0.659,��,7.0,��
2020/03/17,11:50,0.683,0.979,0.658,1.197,0.860,0.398,0.691,0.659,��,7.2,��
2020/03/17,12:00,0.688,0.971,0.659,1.197,0.860,0.397,0.691,0.659,��,6.7,��
2020/03/17,12:10,0.686,0.978,0.659,1.198,0.862,0.397,0.690,0.658,��,3.7,��
2020/03/17,12:20,0.687,0.976,0.660,1.200,0.859,0.399,0.692,0.660,��,3.6,��
2020/03/17,12:30,0.689,0.976,0.662,1.197,0.860,0.397,0.691,0.658,��,7.1,��
2020/03/17,12:40,0.686,0.978,0.659,1.200,0.859,0.398,0.692,0.658,��쓌,10.8,��
2020/03/17,12:50,0.687,0.981,0.661,1.199,0.860,0.399,0.691,0.658,��쓌,11.4,��
2020/03/17,13:00,0.686,0.981,0.660,1.200,0.859,0.399,0.691,0.656,��쓌,10.2,��
2020/03/17,13:10,0.686,0.981,0.659,1.198,0.859,0.398,0.692,0.657,��쓌,8.9,��
2020/03/17,13:20,0.686,0.979,0.659,1.198,0.860,0.398,0.692,0.656,��쓌,8.5,��
2020/03/17,13:30,0.688,0.981,0.659,1.197,0.859,0.399,0.691,0.657,��,9.9,��
2020/03/17,13:40,0.686,0.978,0.658,1.201,0.861,0.399,0.691,0.656,��,9.0,��
2020/03/17,13:50,0.688,0.981,0.660,1.200,0.860,0.399,0.690,0.656,��,9.1,��
2020/03/17,14:00,0.686,0.982,0.660,1.198,0.859,0.400,0.691,0.657,��쓌,10.5,��
2020/03/17,14:10,0.686,0.981,0.660,1.198,0.861,0.400,0.691,0.658,��쓌,12.4,��
2020/03/17,14:20,0.689,0.981,0.659,1.198,0.860,0.398,0.692,0.655,��,11.8,��
2020/03/17,14:30,0.689,0.981,0.662,1.200,0.862,0.399,0.691,0.657,��쓌,10.6,��
2020/03/17,14:40,0.689,0.983,0.663,1.199,0.862,0.398,0.691,0.659,��쓌,13.5,��
2020/03/17,14:50,0.689,0.984,0.662,1.199,0.862,0.399,0.692,0.656,��쓌,10.8,��
2020/03/17,15:00,0.689,0.984,0.660,1.199,0.857,0.400,0.692,0.656,��,12.0,��
2020/03/17,15:10,0.688,0.987,0.661,1.200,0.862,0.399,0.691,0.657,��쓌,12.5,��
2020/03/17,15:20,0.688,0.987,0.662,1.198,0.862,0.399,0.692,0.657,��쓌,11.3,��
2020/03/17,15:30,0.691,0.989,0.662,1.199,0.861,0.399,0.693,0.657,��,12.0,��
2020/03/17,15:40,0.690,0.989,0.662,1.201,0.862,0.399,0.693,0.657,��,9.8,��
2020/03/17,15:50,0.689,0.988,0.662,1.200,0.861,0.401,0.692,0.658,��,12.0,��
2020/03/17,16:00,0.690,0.992,0.662,1.202,0.862,0.400,0.691,0.659,��,10.5,��
2020/03/17,16:10,0.691,0.993,0.662,1.201,0.863,0.399,0.691,0.659,��쓌,11.3,��
2020/03/17,16:20,0.692,0.993,0.664,1.202,0.863,0.401,0.691,0.658,��,10.3,��
2020/03/17,16:30,0.691,0.992,0.663,1.201,0.863,0.400,0.691,0.659,��,10.2,��
2020/03/17,16:40,0.689,0.995,0.662,1.200,0.861,0.399,0.693,0.658,��,9.6,��
2020/03/17,16:50,0.691,0.992,0.662,1.201,0.862,0.400,0.691,0.660,��쓌,8.5,��
2020/03/17,17:00,0.689,0.993,0.663,1.201,0.863,0.401,0.692,0.661,��,8.1,��
2020/03/17,17:10,0.691,0.990,0.662,1.201,0.865,0.401,0.694,0.660,��,9.2,��
2020/03/17,17:20,0.691,0.993,0.664,1.203,0.865,0.402,0.694,0.659,��,8.7,��
2020/03/17,17:30,0.689,0.993,0.663,1.201,0.865,0.400,0.693,0.660,��,9.2,��
2020/03/17,17:40,0.690,0.992,0.662,1.204,0.864,0.401,0.695,0.660,��,7.1,��
2020/03/17,17:50,0.691,0.994,0.663,1.200,0.864,0.400,0.693,0.661,��,7.9,��
2020/03/17,18:00,0.690,0.994,0.662,1.201,0.866,0.400,0.693,0.661,��,7.4,��
2020/03/17,18:10,0.689,0.993,0.661,1.201,0.866,0.401,0.694,0.660,��,8.7,��
2020/03/17,18:20,0.690,0.993,0.665,1.201,0.867,0.400,0.695,0.660,��,9.2,��
2020/03/17,18:30,0.691,0.993,0.662,1.204,0.866,0.398,0.693,0.657,��,9.3,��
2020/03/17,18:40,0.689,0.993,0.664,1.202,0.865,0.400,0.695,0.660,��,9.0,��
2020/03/17,18:50,0.691,0.991,0.663,1.200,0.864,0.401,0.694,0.659,��,10.2,��
2020/03/17,19:00,0.691,0.993,0.663,1.201,0.865,0.399,0.694,0.659,��,10.6,��
2020/03/17,19:10,0.691,0.992,0.663,1.203,0.865,0.400,0.696,0.659,��,10.3,��
2020/03/17,19:20,0.689,0.993,0.663,1.201,0.864,0.400,0.694,0.659,��,10.6,��
2020/03/17,19:30,0.689,0.991,0.663,1.201,0.865,0.400,0.695,0.659,��,9.9,��
2020/03/17,19:40,0.692,0.991,0.662,1.200,0.865,0.401,0.694,0.659,��,9.6,��
2020/03/17,19:50,0.691,0.992,0.663,1.200,0.866,0.401,0.695,0.659,��쐼,9.9,��
2020/03/17,20:00,0.689,0.992,0.664,1.201,0.866,0.400,0.694,0.659,��쐼,9.9,��
2020/03/17,20:10,0.691,0.994,0.663,1.199,0.864,0.400,0.692,0.660,��쐼,10.5,��
2020/03/17,20:20,0.690,0.992,0.661,1.200,0.865,0.400,0.693,0.660,��쐼,9.3,��
2020/03/17,20:30,0.689,0.992,0.663,1.201,0.863,0.401,0.694,0.659,��,10.9,��
2020/03/17,20:40,0.689,0.992,0.664,1.201,0.864,0.399,0.694,0.658,��,9.4,��
2020/03/17,20:50,0.691,0.992,0.663,1.201,0.866,0.401,0.694,0.660,��쐼,10.3,��
2020/03/17,21:00,0.690,0.992,0.664,1.200,0.867,0.401,0.693,0.660,��쐼,11.3,��
2020/03/17,21:10,0.691,0.991,0.664,1.202,0.868,0.401,0.696,0.659,��쐼,10.8,��
2020/03/17,21:20,0.690,0.991,0.665,1.202,0.865,0.399,0.695,0.659,��쐼,10.7,��
2020/03/17,21:30,0.689,0.993,0.665,1.201,0.864,0.399,0.696,0.659,��쐼,9.8,��
2020/03/17,21:40,0.690,0.990,0.662,1.200,0.864,0.400,0.696,0.661,��쐼,9.4,��
2020/03/17,21:50,0.689,0.990,0.662,1.203,0.866,0.400,0.696,0.659,��쐼,7.4,��
2020/03/17,22:00,0.690,0.990,0.665,1.202,0.864,0.401,0.695,0.660,��쐼,8.0,��
2020/03/17,22:10,0.690,0.992,0.664,1.200,0.865,0.400,0.695,0.660,�쐼,8.4,��
2020/03/17,22:20,0.690,0.991,0.663,1.203,0.866,0.401,0.696,0.661,�쐼,6.0,��
2020/03/17,22:30,0.691,0.991,0.663,1.201,0.865,0.401,0.696,0.660,�쐼,6.4,��
2020/03/17,22:40,0.691,0.990,0.667,1.204,0.865,0.400,0.697,0.659,���쐼,3.1,��
2020/03/17,22:50,0.692,0.989,0.664,1.202,0.865,0.399,0.695,0.660,��,3.7,��
2020/03/17,23:00,0.693,0.991,0.663,1.200,0.865,0.401,0.698,0.661,���쐼,3.2,��
2020/03/17,23:10,0.691,0.990,0.664,1.203,0.864,0.401,0.695,0.660,��,1.7,��
2020/03/17,23:20,0.690,0.989,0.663,1.201,0.866,0.401,0.695,0.660,��쓌,1.5,��
2020/03/17,23:30,0.689,0.989,0.663,1.202,0.864,0.401,0.693,0.659,���쐼,1.9,��
2020/03/17,23:40,0.689,0.988,0.662,1.201,0.865,0.400,0.694,0.660,-,CALM,��
2020/03/17,23:50,0.692,0.988,0.664,1.200,0.866,0.400,0.696,0.660,�k��,0.8,��
